Find Starlink 30294

NORAD ID: 57651 Int'l Des: 2023-122 Owner: SPXS Country: US Constellation: starlink operational
LEOCIRCULAR

当前视图

正在加载3D地球...

About Starlink 30294

Starlink 30294 (NORAD 57651) is a starlink constellation satellite (v2 mini) launched Aug 17, 2023 by SPXS of US. It operates in LEO, CIRCULAR orbit with a mass of 730.00 kg.

即将过境

Passes for default location (London). Set your location on the main map for personalized predictions.

高度历史

Loading altitude history...

两行轨道根数

1 57651U 23122V 26265.72023288 -.00000288 00000-0 -94647-6 0 9993
2 57651 43.0044 48.4674 0001636 268.1739 91.8925 15.27575624172475
Epoch: Sep 22, 2026 • Age: 17 hours

当前状态

高度 483.5 km
远地点 / 近地点 N/A
速度 7.63 km/s
星下点 -4.76°S, 80.52°E
发射日期 Aug 17, 2023
运行时间 3.1 years
类型 internet

技术详情

分类 Payload
质量 730.00 kg
干质量 700.00 kg
长度 0.30 m
跨度 29.00 m
形状 ? Box + pan
制造商 SPXS
平台类型 Starlink V2M
阶段状态 In Orbit
所有者/国家 SPXS/US

Most Searched